Flag for Pakistan Weather past 2 weeks in Narowal, Pakistan

Now
70 °F

Scattered clouds.


Feels Like: 70 °F
Forecast: 49 / 66 °F
Wind: 7 mph from Northwest

Location: Amritsar Airport

Current Time: Mar 6, 2015 at 4:14:34 PM

Latest Report: Mar 6, 2015 at 3:30 PM


Visibility: 4 mi

Pressure: 30.07 "Hg

Humidity: 57%

Dew point: 54 °F

Location of NarowalLocation

Historic Weather in Narowal — Graph

°F

Narowal temperature yesterday

Maximum temperature yesterday: 64 °F (at 11:30 AM)
Minimum temperature yesterday: 54 °F (at 8:30 PM)
Average temperature yesterday: 57 °F

Past Weeks' High & Low Weather Summary

 TemperatureHumidityPressure
High79 °F (Feb 23, 3:00 PM)100% (Feb 19, 7:00 PM)30.12 "Hg (Feb 19, 7:00 PM)
Low46 °F (Mar 4, 6:00 AM)36% (Feb 27, 2:00 PM)29.71 "Hg (Feb 25, 7:00 AM)
Average62 °F82%29.96 "Hg
* Reported Feb 19 2:00 PM — Mar 6 2:30 PM, Narowal, Weather by CustomWeather, © 2015

Note: Actual official high and low records may vary slightly from our data, if they occured in-between our weather recording intervals... More about our weather records

Advertising

Narowal weather history for previous 24 hours

 ConditionsComfort  
Time TempWeatherWind HumidityBarometerVisibility
2:30 PM
Fri, Mar 6
72 °FScattered clouds.7 mph53%30.07 "Hg4 mi
2:00 PM72 °FScattered clouds.7 mph57%30.09 "Hg4 mi
1:30 PM70 °FPassing clouds.7 mph57%30.09 "Hg4 mi
1:00 PM72 °FClear.6 mph57%30.09 "Hg4 mi
12:30 PM70 °FClear.5 mph57%30.12 "Hg4 mi
12:00 PM70 °FClear.5 mph57%30.12 "Hg4 mi
11:30 AM68 °FClear.2 mph64%30.12 "Hg4 mi
11:00 AM68 °FHaze.1 mph56%30.12 "Hg3 mi
10:30 AM66 °FHaze.No wind68%30.12 "Hg3 mi
10:00 AM64 °FHaze.No wind73%30.12 "Hg3 mi
9:30 AM63 °FHaze.No wind73%30.12 "Hg3 mi
9:00 AM57 °FFog.No wind82%30.12 "Hg3 mi
8:30 AM55 °FFog.1 mph82%30.09 "Hg3 mi
8:00 AM52 °FFog.5 mph88%30.09 "Hg3 mi
7:30 AM50 °FFog.2 mph94%30.09 "Hg2 mi
7:00 AM48 °FFog.6 mph94%30.07 "Hg2 mi
6:30 AM48 °FFog.5 mph94%30.07 "Hg2 mi
6:00 AM48 °FFog.2 mph94%30.07 "Hg2 mi
5:30 AM48 °FFog.1 mph100%30.07 "Hg2 mi
5:00 AM50 °FFog.6 mph94%30.07 "Hg2 mi
4:30 AM48 °FFog.7 mph100%30.07 "Hg2 mi
3:30 AM48 °FFog.3 mph100%30.07 "Hg2 mi
2:30 AM50 °FFog.No wind100%30.07 "Hg2 mi
2:00 AM50 °FFog.No wind100%30.07 "Hg2 mi
1:30 AM50 °FFog.No wind100%30.07 "Hg2 mi
1:00 AM52 °FFog.2 mph94%30.07 "Hg2 mi
12:30 AM52 °FFog.5 mph100%30.07 "Hg2 mi
12:00 AM50 °FFog.5 mph100%30.09 "Hg2 mi
11:30 PM
Thu, Mar 5
54 °FFog.3 mph94%30.09 "Hg2 mi
11:00 PM54 °FFog.3 mph94%30.09 "Hg2 mi
10:30 PM54 °FFog.5 mph94%30.07 "Hg2 mi
10:00 PM54 °FFog.6 mph94%30.07 "Hg2 mi
9:30 PM54 °FFog.2 mph94%30.07 "Hg2 mi
9:00 PM54 °FFog.6 mph94%30.07 "Hg2 mi
8:30 PM54 °FFog.3 mph94%30.07 "Hg2 mi
8:00 PM55 °FFog.3 mph94%30.07 "Hg2 mi
7:30 PM55 °FFog.8 mph94%30.04 "Hg2 mi
7:00 PM57 °FFog.10 mph88%30.04 "Hg2 mi
6:30 PM57 °FFog.9 mph88%30.04 "Hg2 mi
6:00 PM57 °FFog.8 mph88%30.04 "Hg2 mi
5:30 PM57 °FFog.8 mph94%30.01 "Hg2 mi
5:00 PM59 °FFog.2 mph88%30.04 "Hg2 mi
4:30 PM59 °FFog.8 mph88%30.04 "Hg2 mi
Weather by CustomWeather, © 2015

See weather overviewHow to use our weather pages